| time (UTC) | temp F | wind direction | speed knots | gust knots | rain 1hr in | rain 24hr in | rain mn in | humidity % | barometer mb |
| 20260503200006 | 87 | 360 | 2.6 | 7.8 | 0.00 | 0.00 | 0.00 | 9 | 1010.0 |
| 20260503195506 | 87 | 360 | 1.7 | 10.4 | 0.00 | 0.00 | 0.00 | 9 | 1010.4 |
| 20260503195036 | 87 | 100 | 2.6 | 10.4 | 0.00 | 0.00 | 0.00 | 9 | 1010.6 |
| 20260503194537 | 87 | 79 | 9.6 | 10.4 | 0.00 | 0.00 | 0.00 | 9 | 1010.8 |
| 20260503193506 | 87 | 65 | 1.7 | 10.4 | 0.00 | 0.00 | 0.00 | 9 | 1010.9 |
| 20260503193006 | 88 | 360 | 5.2 | 13.9 | 0.00 | 0.00 | 0.00 | 9 | 1011.1 |
| 20260503192506 | 87 | 360 | 7.0 | 13.9 | 0.00 | 0.00 | 0.00 | 9 | 1011.3 |
| 20260503192007 | 87 | 360 | 7.0 | 10.4 | 0.00 | 0.00 | 0.00 | 9 | 1011.4 |
| 20260503191506 | 86 | 360 | 2.6 | 8.7 | 0.00 | 0.00 | 0.00 | 10 | 1011.3 |
| 20260503191007 | 85 | 360 | 7.0 | 8.7 | 0.00 | 0.00 | 0.00 | 9 | 1011.3 |
| 20260503190037 | 86 | 360 | 7.8 | 8.7 | 0.00 | 0.00 | 0.00 | 9 | 1011.5 |
| 20260503185536 | 86 | 360 | 7.8 | 7.8 | 0.00 | 0.00 | 0.00 | 8 | 1011.7 |
| 20260503184506 | 85 | 97 | 5.2 | 11.3 | 0.00 | 0.00 | 0.00 | 9 | 1011.7 |
| 20260503184006 | 86 | 360 | 3.5 | 11.3 | 0.00 | 0.00 | 0.00 | 8 | 1011.9 |
| 20260503183507 | 85 | 360 | 4.3 | 8.7 | 0.00 | 0.00 | 0.00 | 8 | 1011.9 |
| 20260503183007 | 85 | 360 | 2.6 | 9.6 | 0.00 | 0.00 | 0.00 | 7 | 1011.9 |
| 20260503182507 | 86 | 113 | 1.7 | 13.0 | 0.00 | 0.00 | 0.00 | 7 | 1012.2 |
| 20260503182006 | 85 | 136 | 6.1 | 13.0 | 0.00 | 0.00 | 0.00 | 8 | 1011.9 |
| 20260503181506 | 84 | 136 | 0.9 | 10.4 | 0.00 | 0.00 | 0.00 | 7 | 1012.1 |
| 20260503181006 | 85 | 138 | 3.5 | 10.4 | 0.00 | 0.00 | 0.00 | 8 | 1012.2 |
| 20260503180007 | 83 | 360 | 4.3 | 9.6 | 0.00 | 0.00 | 0.00 | 8 | 1012.1 |
| 20260503175005 | 84 | 111 | 7.0 | 9.6 | 0.00 | 0.00 | 0.00 | 8 | 1012.7 |
| 20260503174505 | 84 | 360 | 1.7 | 8.7 | 0.00 | 0.00 | 0.00 | 8 | 1012.8 |
| 20260503174006 | 84 | 360 | 6.1 | 8.7 | 0.00 | 0.00 | 0.00 | 8 | 1012.7 |
| 20260503173505 | 83 | 360 | 4.3 | 9.6 | 0.00 | 0.00 | 0.00 | 8 | 1012.5 |
| 20260503173035 | 83 | 122 | 0.9 | 9.6 | 0.00 | 0.00 | 0.00 | 9 | 1012.7 |
| 20260503172536 | 82 | 360 | 2.6 | 8.7 | 0.00 | 0.00 | 0.00 | 9 | 1012.7 |
| 20260503172006 | 82 | 360 | 1.7 | 8.7 | 0.00 | 0.00 | 0.00 | 9 | 1012.8 |
| 20260503171005 | 81 | 115 | 2.6 | 7.8 | 0.00 | 0.00 | 0.00 | 9 | 1012.5 |
| 20260503170505 | 81 | 50 | 5.2 | 6.1 | 0.00 | 0.00 | 0.00 | 9 | 1012.6 |
| 20260503151005 | 71 | 292 | 0.9 | 2.6 | 0.00 | 0.00 | 0.00 | 14 | 1013.1 |
| 20260503130536 | 57 | 304 | 1.7 | 6.1 | 0.00 | 0.00 | 0.00 | 15 | 1012.1 |
| 20260503110505 | 63 | 299 | 0.9 | 4.3 | 0.00 | 0.00 | 0.00 | 13 | 1012.1 |
| 20260503090505 | 64 | 360 | 0.9 | 3.5 | 0.00 | 0.00 | 0.00 | 13 | 1012.5 |
| 20260503080506 | 67 | 360 | 3.5 | 5.2 | 0.00 | 0.00 | 0.00 | 11 | 1013.3 |
| 20260503072535 | 66 | 360 | 1.7 | 2.6 | 0.00 | 0.00 | 0.00 | 13 | 1013.4 |
| 20260503072035 | 67 | 284 | 1.7 | 2.6 | 0.00 | 0.00 | 0.00 | 13 | 1013.5 |
| 20260503071535 | 67 | 283 | 0.9 | 2.6 | 0.00 | 0.00 | 0.00 | 13 | 1013.5 |
| 20260503071005 | 68 | 360 | 1.7 | 2.6 | 0.00 | 0.00 | 0.00 | 13 | 1013.4 |
| 20260503070505 | 68 | 284 | 1.7 | 2.6 | 0.00 | 0.00 | 0.00 | 13 | 1013.5 |
| 20260503055005 | 70 | 360 | 1.7 | 5.2 | 0.00 | 0.00 | 0.00 | 11 | 1013.2 |
| 20260503054035 | 70 | 360 | 5.2 | 6.1 | 0.00 | 0.00 | 0.00 | 11 | 1013.3 |
| 20260503053504 | 70 | 360 | 1.7 | 6.1 | 0.00 | 0.00 | 0.00 | 11 | 1013.3 |
| 20260503052534 | 70 | 360 | 3.5 | 7.0 | 0.00 | 0.00 | 0.00 | 11 | 1013.2 |
| 20260503051034 | 70 | 360 | 2.6 | 5.2 | 0.00 | 0.00 | 0.00 | 11 | 1013.2 |
| 20260503050505 | 70 | 360 | 3.5 | 5.2 | 0.00 | 0.00 | 0.00 | 11 | 1013.0 |
| 20260503050035 | 70 | 360 | 3.5 | 5.2 | 0.00 | 0.00 | 0.00 | 12 | 1013.2 |
| 20260503045535 | 70 | 360 | 1.7 | 5.2 | 0.00 | 0.00 | 0.00 | 12 | 1013.1 |
| 20260503045005 | 70 | 305 | 0.0 | 5.2 | 0.00 | 0.00 | 0.00 | 11 | 1013.1 |
| 20260503044534 | 71 | 360 | 0.9 | 6.1 | 0.00 | 0.00 | 0.00 | 11 | 1013.0 |
| 20260503044005 | 71 | 360 | 2.6 | 6.1 | 0.00 | 0.00 | 0.00 | 11 | 1013.2 |
| 20260503043535 | 71 | 360 | 2.6 | 5.2 | 0.00 | 0.00 | 0.00 | 9 | 1013.1 |
| 20260503043035 | 71 | 360 | 2.6 | 4.3 | 0.00 | 0.00 | 0.00 | 9 | 1013.1 |
| 20260503042505 | 71 | 360 | 0.9 | 2.6 | 0.00 | 0.00 | 0.00 | 10 | 1013.0 |
| 20260503042035 | 72 | 360 | 0.9 | 1.7 | 0.00 | 0.00 | 0.00 | 12 | 1013.0 |
| 20260503041535 | 72 | 110 | 0.0 | 1.7 | 0.00 | 0.00 | 0.00 | 12 | 1012.9 |
| 20260503041035 | 72 | 360 | 0.0 | 0.9 | 0.00 | 0.00 | 0.00 | 12 | 1012.9 |
| 20260503040505 | 73 | 360 | 0.0 | 0.0 | 0.00 | 0.00 | 0.00 | 11 | 1012.8 |
| 20260503040035 | 73 | 360 | 0.0 | 0.0 | 0.00 | 0.00 | 0.00 | 12 | 1012.8 |
| 20260503035035 | 74 | 360 | 0.0 | 0.0 | 0.00 | 0.00 | 0.00 | 11 | 1012.7 |
| 20260503034534 | 74 | 360 | 0.0 | 0.0 | 0.00 | 0.00 | 0.00 | 11 | 1012.7 |
| 20260503034034 | 74 | 360 | 0.0 | 0.0 | 0.00 | 0.00 | 0.00 | 11 | 1012.6 |
| 20260503033535 | 75 | 116 | 0.0 | 0.0 | 0.00 | 0.00 | 0.00 | 10 | 1012.5 |
| 20260503033004 | 75 | 128 | 0.0 | 0.0 | 0.00 | 0.00 | 0.00 | 11 | 1012.5 |
| 20260503032534 | 76 | 360 | 0.0 | 0.0 | 0.00 | 0.00 | 0.00 | 10 | 1012.5 |
| 20260503031505 | 76 | 360 | 0.0 | 0.0 | 0.00 | 0.00 | 0.00 | 9 | 1012.4 |
| 20260503031035 | 77 | 126 | 0.0 | 0.0 | 0.00 | 0.00 | 0.00 | 9 | 1012.4 |
| 20260503030535 | 77 | 360 | 0.0 | 0.0 | 0.00 | 0.00 | 0.00 | 9 | 1012.3 |
| 20260503030034 | 78 | 360 | 0.0 | 0.9 | 0.00 | 0.00 | 0.00 | 9 | 1012.4 |
| 20260503025534 | 78 | 360 | 0.0 | 0.9 | 0.00 | 0.00 | 0.00 | 8 | 1011.9 |
| 20260503025034 | 79 | 127 | 0.0 | 0.0 | 0.00 | 0.00 | 0.00 | 8 | 1011.8 |
| 20260503024504 | 79 | 118 | 0.0 | 0.9 | 0.00 | 0.00 | 0.00 | 8 | 1011.8 |
| 20260503024034 | 80 | 360 | 0.0 | 1.7 | 0.00 | 0.00 | 0.00 | 7 | 1011.9 |
| 20260503023534 | 80 | 360 | 0.9 | 2.6 | 0.00 | 0.00 | 0.00 | 7 | 1011.8 |
| 20260503023004 | 80 | 360 | 0.9 | 2.6 | 0.00 | 0.00 | 0.00 | 7 | 1011.8 |
| 20260503022535 | 80 | 360 | 1.7 | 2.6 | 0.00 | 0.00 | 0.00 | 6 | 1011.9 |
| 20260503022005 | 80 | 360 | 0.9 | 2.6 | 0.00 | 0.00 | 0.00 | 7 | 1011.8 |
| 20260503021505 | 81 | 360 | 0.9 | 2.6 | 0.00 | 0.00 | 0.00 | 6 | 1011.8 |
| 20260503021005 | 81 | 360 | 0.0 | 2.6 | 0.00 | 0.00 | 0.00 | 6 | 1012.0 |
| 20260503020535 | 81 | 360 | 0.9 | 2.6 | 0.00 | 0.00 | 0.00 | 6 | 1012.0 |
| 20260503020005 | 81 | 360 | 0.9 | 4.3 | 0.00 | 0.00 | 0.00 | 6 | 1012.0 |
| 20260503014504 | 82 | 360 | 2.6 | 2.6 | 0.00 | 0.00 | 0.00 | 6 | 1011.6 |
| 20260503014035 | 82 | 360 | 0.9 | 3.5 | 0.00 | 0.00 | 0.00 | 6 | 1011.7 |
| 20260503013035 | 82 | 360 | 2.6 | 5.2 | 0.00 | 0.00 | 0.00 | 5 | 1011.7 |
| 20260503012504 | 82 | 360 | 4.3 | 5.2 | 0.00 | 0.00 | 0.00 | 6 | 1011.9 |
| 20260503012035 | 83 | 360 | 0.9 | 5.2 | 0.00 | 0.00 | 0.00 | 4 | 1011.8 |
| 20260503011535 | 83 | 360 | 2.6 | 4.3 | 0.00 | 0.00 | 0.00 | 5 | 1011.9 |
| 20260503010534 | 84 | 360 | 3.5 | 4.3 | 0.00 | 0.00 | 0.00 | 5 | 1011.9 |
| 20260503010034 | 84 | 360 | 4.3 | 6.1 | 0.00 | 0.00 | 0.00 | 6 | 1012.0 |
| 20260503005534 | 83 | 360 | 0.9 | 7.0 | 0.00 | 0.00 | 0.00 | 5 | 1011.9 |
| 20260503004036 | 83 | 148 | 3.5 | 3.5 | 0.00 | 0.00 | 0.00 | 5 | 1012.0 |
| 20260503003535 | 83 | 360 | 3.5 | 4.3 | 0.00 | 0.00 | 0.00 | 5 | 1011.9 |
| 20260503003004 | 83 | 360 | 0.9 | 5.2 | 0.00 | 0.00 | 0.00 | 5 | 1012.1 |
| 20260503002535 | 83 | 360 | 0.9 | 5.2 | 0.00 | 0.00 | 0.00 | 5 | 1012.1 |
| 20260503002004 | 83 | 360 | 0.0 | 7.0 | 0.00 | 0.00 | 0.00 | 5 | 1012.2 |
| 20260503001535 | 83 | 360 | 0.0 | 7.0 | 0.00 | 0.00 | 0.00 | 6 | 1012.3 |
| 20260503001004 | 84 | 360 | 5.2 | 7.8 | 0.00 | 0.00 | 0.00 | 5 | 1012.4 |
| 20260503000004 | 84 | 360 | 4.3 | 6.1 | 0.00 | 0.00 | 0.00 | 5 | 1012.5 |
| 20260502235534 | 84 | 360 | 0.0 | 6.1 | 0.00 | 0.00 | 0.00 | 5 | 1012.6 |
| 20260502235035 | 83 | 360 | 4.3 | 6.1 | 0.00 | 0.00 | 0.00 | 5 | 1012.3 |
| 20260502234004 | 84 | 151 | 0.9 | 7.8 | 0.00 | 0.00 | 0.00 | 5 | 1012.7 |
| 20260502233005 | 85 | 360 | 0.0 | 7.0 | 0.00 | 0.00 | 0.00 | 6 | 1012.7 |
| 20260502232534 | 84 | 360 | 0.9 | 7.8 | 0.00 | 0.00 | 0.00 | 6 | 1012.8 |
| 20260502231504 | 84 | 360 | 2.6 | 8.7 | 0.00 | 0.00 | 0.00 | 5 | 1012.8 |
| 20260502230035 | 84 | 134 | 4.3 | 9.6 | 0.00 | 0.00 | 0.00 | 5 | 1012.8 |
| 20260502225534 | 85 | 360 | 3.5 | 10.4 | 0.00 | 0.00 | 0.00 | 5 | 1013.4 |
| 20260502225004 | 84 | 360 | 8.7 | 10.4 | 0.00 | 0.00 | 0.00 | 6 | 1013.3 |
| 20260502224505 | 84 | 360 | 3.5 | 9.6 | 0.00 | 0.00 | 0.00 | 6 | 1013.4 |
| 20260502223534 | 84 | 148 | 5.2 | 9.6 | 0.00 | 0.00 | 0.00 | 5 | 1013.5 |
| 20260502223035 | 85 | 121 | 1.7 | 9.6 | 0.00 | 0.00 | 0.00 | 6 | 1013.9 |
| 20260502222534 | 85 | 360 | 2.6 | 9.6 | 0.00 | 0.00 | 0.00 | 6 | 1013.9 |
| 20260502221506 | 85 | 157 | 3.5 | 5.2 | 0.00 | 0.00 | 0.00 | 6 | 1014.0 |
| 20260502221034 | 85 | 108 | 1.7 | 7.0 | 0.00 | 0.00 | 0.00 | 7 | 1014.3 |
| 20260502220534 | 85 | 55 | 2.6 | 7.0 | 0.00 | 0.00 | 0.00 | 7 | 1014.3 |
| 20260502220004 | 84 | 360 | 2.6 | 8.7 | 0.00 | 0.00 | 0.00 | 7 | 1014.2 |
| 20260502215034 | 84 | 360 | 1.7 | 8.7 | 0.00 | 0.00 | 0.00 | 6 | 1014.3 |
| 20260502214504 | 85 | 360 | 3.5 | 8.7 | 0.00 | 0.00 | 0.00 | 6 | 1014.6 |
| 20260502214034 | 85 | 145 | 2.6 | 9.6 | 0.00 | 0.00 | 0.00 | 6 | 1014.6 |
| 20260502213534 | 85 | 50 | 1.7 | 9.6 | 0.00 | 0.00 | 0.00 | 6 | 1014.6 |
| 20260502213034 | 85 | 91 | 0.0 | 9.6 | 0.00 | 0.00 | 0.00 | 6 | 1014.8 |
| 20260502212505 | 85 | 134 | 1.7 | 7.8 | 0.00 | 0.00 | 0.00 | 6 | 1014.8 |
| 20260502212034 | 84 | 360 | 1.7 | 9.6 | 0.00 | 0.00 | 0.00 | 7 | 1015.1 |
| 20260502211504 | 85 | 360 | 1.7 | 9.6 | 0.00 | 0.00 | 0.00 | 7 | 1015.1 |
| 20260502211004 | 84 | 150 | 3.5 | 7.0 | 0.00 | 0.00 | 0.00 | 8 | 1015.1 |
| 20260502210504 | 84 | 360 | 2.6 | 8.7 | 0.00 | 0.00 | 0.00 | 8 | 1015.2 |
| 20260502210004 | 84 | 360 | 2.6 | 8.7 | 0.00 | 0.00 | 0.00 | 8 | 1015.3 |
| 20260502205504 | 84 | 145 | 3.5 | 8.7 | 0.00 | 0.00 | 0.00 | 7 | 1015.3 |
| 20260502205004 | 84 | 360 | 1.7 | 7.8 | 0.00 | 0.00 | 0.00 | 8 | 1015.3 |
| 20260502204004 | 84 | 90 | 7.8 | 7.8 | 0.00 | 0.00 | 0.00 | 7 | 1015.4 |
| 20260502203534 | 85 | 164 | 1.7 | 9.6 | 0.00 | 0.00 | 0.00 | 6 | 1015.5 |
| 20260502202504 | 84 | 360 | 1.7 | 12.2 | 0.00 | 0.00 | 0.00 | 6 | 1015.8 |
| 20260502202004 | 84 | 360 | 2.6 | 12.2 | 0.00 | 0.00 | 0.00 | 7 | 1016.0 |
| 20260502201004 | 84 | 360 | 5.2 | 8.7 | 0.00 | 0.00 | 0.00 | 8 | 1016.1 |
| 20260502200534 | 84 | 360 | 0.0 | 8.7 | 0.00 | 0.00 | 0.00 | 7 | 1016.3 |